Regional Weather Roundup
Issued by NWS

Home | Current Version | Previous Version | Text Only | Print | Product List | Glossary Off
Versions: 1 2 3 4 5 6 7 8 9 10 11 12 13 14 15 16 17 18 19 20 21 22 23 24 25 26 27 28 29 30 31 32 33 34 35 36 37 38 39 40 41 42 43 44 45 46 47 48 49 50

000
ASUS43 KDMX 251607
RWRIA

WEATHER ROUNDUP FOR IOWA
NATIONAL WEATHER SERVICE DES MOINES IA
1100 AM CDT WED APR 25 2018

NOTE: "FAIR" INDICATES FEW OR NO CLOUDS BELOW 12,000 FEET WITH NO
SIGNIFICANT WEATHER AND/OR OBSTRUCTIONS TO VISIBILITY.

* - THESE STATIONS ARE NOT NWS STATIONS...THUS NOT UNDER NWS
QUALITY CONTROL.  THEY ALSO DO NOT REPORT WEATHER SUCH
AS PRECIPITATION OR FOG.

IAZ001>003-012>014-020>022-031>034-043>046-251700-
   NORTHWEST IOWA

CITY           SKY/WX    TMP DP  RH WIND       PRES   REMARKS
CARROLL *      SUNNY     54  30  40 NE12G18   30.20F
CHEROKEE *     SUNNY     51  33  49 N6        30.24F
DENISON *      CLOUDY    52  34  50 NE9       30.24F
LE MARS *      SUNNY     52  34  50 VRB5      30.25F
ORANGE CITY *  SUNNY     50  36  57 NE3       30.24F
SHELDON *      SUNNY     50  28  43 NW8       30.22F
SIOUX CITY     SUNNY     50  36  58 NW6       30.25F
SPENCER        SUNNY     50  32  50 MISG      30.24F
STORM LAKE *   SUNNY     50  32  50 N9        30.23S
$$

IAZ055>058-069>071-079>083-090>094-251700-
   SOUTHWEST IOWA

CITY           SKY/WX    TMP DP  RH WIND       PRES   REMARKS
ATLANTIC *     CLOUDY    48  39  71 N6G13     30.22S
AUDUBON *      CLOUDY    52  37  58 N8        30.22F
CRESTON *      CLOUDY    48  39  71 N10       30.21S
HARLAN  *      CLOUDY    48  41  76 N9        30.26S
LAMONI         LGT RAIN  48  40  73 N7        30.17S
RED OAK *      CLOUDY    46  41  81 N8        30.23S
SHENANDOAH *   CLOUDY    46  43  87 N8        30.24S
$$

IAZ047>049-059>061-072>074-084-251700-
   CENTRAL IOWA

CITY           SKY/WX    TMP DP  RH WIND       PRES   REMARKS
AMES           PTSUNNY   55  33  43 NE9       30.19F
ANKENY *       CLOUDY    55  32  41 NE13      30.19F
BOONE *        MOSUNNY   54  34  47 N8G15     30.18F
CHARITON *     CLOUDY    52  37  58 NE10      30.17S
DES MOINES     CLOUDY    56  32  40 N13       30.19S
GRINNELL*      CLOUDY    55  34  45 N10       30.18S
KNOXVILLE *    CLOUDY    55  36  47 NE10      30.15F
MARSHALLTOWN   MOSUNNY   55  32  41 NE10      30.17F
NEWTON *       PTSUNNY   54  32  43 NE13      30.17F
PELLA *        CLOUDY    56  35  44 N6        30.18F
PERRY *        FAIR      54  27  35 N7        30.20S
$$

IAZ004>006-015-016-023>025-035-036-251700-
   NORTH CENTRAL IOWA

CITY           SKY/WX    TMP DP  RH WIND       PRES   REMARKS
ALGONA *       SUNNY     48  37  66 NE12      30.22F
CLARION *      SUNNY     52  32  46 NE5       30.20F
ESTHERVILLE    SUNNY     45  35  68 N7        30.23F
FORT DODGE *   SUNNY     52  35  52 N8        30.21F
MASON CITY     SUNNY     51  35  54 N5        30.21F
FOREST CITY *  FAIR      50  36  57 N5        30.21F
WEBSTER CITY * SUNNY     54  34  47 N9        30.18F
IOWA FALLS *   FAIR      55  34  45 N6        30.20F
$$

IAZ007>011-017>019-026>030-037>042-050>054-066-251700-
   NORTHEAST IOWA

CITY           SKY/WX    TMP DP  RH WIND       PRES   REMARKS
CEDAR RAPIDS   FAIR      56  34  43 N8        30.15F
CHARLES CITY * FAIR      52  32  46 NE8       30.19F
CLINTON *      FAIR      56  36  47 NE13      30.14F
DECORAH *      FAIR      50  34  53 N7G15     30.17F
DUBUQUE        FAIR      53  34  48 NE13      30.15F
MONTICELLO *   FAIR      57  34  41 NE13      30.14F
OELWEIN *      FAIR      54  32  43 NE14G20   30.17F
WATERLOO       FAIR      56  33  42 NE12      30.17F
$$

IAZ064-065-067-068-078-251700-
   EAST CENTRAL IOWA

CITY           SKY/WX    TMP DP  RH WIND       PRES   REMARKS
DAVENPORT      FAIR      54  34  46 NE9       30.16F
IOWA CITY      FAIR      57  34  41 N8        30.17F
MT. PLEASANT * CLOUDY    55  32  41 NE9       30.15F
MUSCATINE *    FAIR      55  34  44 NE10      30.15F
QUAD CITIES    FAIR      57  36  45 NE8       30.13S
$$

IAZ062-063-075>077-085>089-095>099-251700-
   SOUTHEAST IOWA

CITY           SKY/WX    TMP DP  RH WIND       PRES   REMARKS
BURLINGTON     CLOUDY    55  36  48 N10       30.14R
FAIRFIELD *    CLOUDY    55  36  47 NE9       30.15F
FORT MADISON * PTSUNNY   54  37  54 NE8       30.14F
KEOKUK *       PTSUNNY   55  37  50 N8        30.13F
OSKALOOSA *    FAIR      55  35  46 NE9G17    30.17S
CENTERVILLE *  FAIR      52  37  58 N9        30.17R
OTTUMWA        CLOUDY    56  37  49 NE14      30.15F
WASHINGTON *   CLOUDY    55  34  44 E10       30.17R
$$

ABBREVIATIONS USED IN REMARKS
   TC - TEMPERATURES IN CELSIUS
  WCI - WIND CHILL INDEX
   HX - HEAT INDEX
  VSB - VISIBILITY
$$





USA.gov is the U.S. government's official web portal to all federal, state and local government web resources and services.